Location: Recife
(8.0585°S, 34.8848°W)
Time: 21:07:37
(UTC-03:00)

Altair - Pass Details

Date: 21 April 2026
Orbit: 1501 x 1682 km, 47.2° (Epoch: 17 May)

Event Time Altitude Azimuth Distance (km) Brightness Sun altitude
Rises 07:25:29 0° 224° (SW) 4,832 9.6 28.8°
Reaches altitude 10° 07:28:34 10° 225° (SW) 3,866 9.2 29.5°
Maximum altitude 07:38:30 77° 309° (NW) 1,704 8.2 31.8°
Drops below altitude 10° 07:48:37 10° 34° (NE) 3,933 10.5 34.2°
Sets 07:51:48 0° 36° (NE) 4,919 10.9 34.9°
